• In Kazakhstan
  • List of Countries
  • For 7 days
  • Water Temperature
  • Weather Map
  • News
  • Weather Widgets
  • user-avatar
    Login

    Hourly Weather Kerns

    Today, 5 June, Friday

    Time Temperature Precipitation Wind Pressure Humidity
    00:00 +19°C° 0.1 mm 5 mps 763 mmHg 95%
    01:00 +19°C° 0.1 mm 5 mps 762 mmHg 96%
    02:00 +19°C° 0.1 mm 5 mps 762 mmHg 97%
    03:00 +20°C° 0.1 mm 5 mps 762 mmHg 97%
    04:00 +20°C° 0.1 mm 5 mps 761 mmHg 97%
    05:00 +21°C° 0.1 mm 5 mps 761 mmHg 97%
    06:00 +21°C° 0.1 mm 6 mps 762 mmHg 97%
    07:00 +21°C° 0.1 mm 6 mps 762 mmHg 97%
    08:00 +22°C° 0.2 mm 6 mps 762 mmHg 92%
    09:00 +23°C° 0.2 mm 6 mps 762 mmHg 88%
    10:00 +24°C° 0.2 mm 6 mps 763 mmHg 83%
    11:00 +26°C° 0.2 mm 6 mps 762 mmHg 80%
    12:00 +26°C° 0.2 mm 6 mps 762 mmHg 78%
    13:00 +27°C° 0.2 mm 6 mps 761 mmHg 75%
    14:00 +26°C° 0.1 mm 6 mps 761 mmHg 76%
    15:00 +26°C° 0.1 mm 6 mps 761 mmHg 78%
    16:00 +26°C° 0.1 mm 6 mps 761 mmHg 80%
    17:00 +24°C° 0.1 mm 6 mps 761 mmHg 85%
    18:00 +23°C° 0.1 mm 6 mps 762 mmHg 90%
    19:00 +22°C° 0.1 mm 5 mps 762 mmHg 95%
    20:00 +21°C° 0.1 mm 5 mps 762 mmHg 95%
    21:00 +21°C° 0.1 mm 5 mps 763 mmHg 95%
    22:00 +21°C° 0.1 mm 5 mps 763 mmHg 95%
    23:00 +21°C° 0.1 mm 5 mps 762 mmHg 95%

    Tomorrow, 6 June, Saturday

    Time Temperature Precipitation Wind Pressure Humidity
    00:00 +21°C° 0.1 mm 5 mps 762 mmHg 96%
    01:00 +20°C° 0.1 mm 4 mps 762 mmHg 96%
    02:00 +21°C° 0.1 mm 5 mps 761 mmHg 97%
    03:00 +21°C° 0.1 mm 5 mps 761 mmHg 97%
    04:00 +21°C° 0.1 mm 5 mps 761 mmHg 97%
    05:00 +21°C° 0.2 mm 5 mps 761 mmHg 97%
    06:00 +21°C° 0.2 mm 5 mps 761 mmHg 97%
    07:00 +22°C° 0.2 mm 5 mps 761 mmHg 96%
    08:00 +22°C° 0.2 mm 6 mps 761 mmHg 93%
    09:00 +23°C° 0.2 mm 6 mps 761 mmHg 90%
    10:00 +23°C° 0.2 mm 6 mps 762 mmHg 87%
    11:00 +24°C° 0.1 mm 6 mps 761 mmHg 83%
    12:00 +24°C° 0.1 mm 6 mps 760 mmHg 78%
    13:00 +26°C° 0.1 mm 6 mps 760 mmHg 74%
    14:00 +26°C° 0.1 mm 6 mps 760 mmHg 75%
    15:00 +26°C° 0.1 mm 6 mps 760 mmHg 76%
    16:00 +24°C° 0.1 mm 6 mps 760 mmHg 78%
    17:00 +23°C° 0.1 mm 5 mps 760 mmHg 84%
    18:00 +22°C° 0.1 mm 5 mps 760 mmHg 90%
    19:00 +20°C° 0.1 mm 4 mps 761 mmHg 95%
    20:00 +20°C° 0.1 mm 4 mps 761 mmHg 96%
    21:00 +20°C° 0.1 mm 4 mps 761 mmHg 97%
    22:00 +20°C° 0.1 mm 4 mps 762 mmHg 98%
    23:00 +20°C° 0.2 mm 4 mps 761 mmHg 98%

    Day after tomorrow, 7 June, Sunday

    Time Temperature Precipitation Wind Pressure Humidity
    00:00 +20°C° 0.2 mm 4 mps 761 mmHg 98%
    01:00 +20°C° 0.2 mm 4 mps 761 mmHg 98%
    02:00 +20°C° 0.1 mm 3 mps 760 mmHg 98%
    03:00 +20°C° 0.1 mm 3 mps 760 mmHg 98%
    04:00 +19°C° 0.1 mm 3 mps 760 mmHg 98%
    05:00 +19°C° 0 mm 3 mps 760 mmHg 98%
    06:00 +19°C° 0 mm 3 mps 760 mmHg 98%
    07:00 +19°C° 0 mm 3 mps 760 mmHg 98%
    08:00 +21°C° 0.1 mm 3 mps 761 mmHg 90%
    09:00 +23°C° 0.1 mm 4 mps 761 mmHg 82%
    10:00 +26°C° 0.1 mm 4 mps 761 mmHg 74%
    11:00 +27°C° 0.1 mm 4 mps 760 mmHg 72%
    12:00 +27°C° 0.1 mm 4 mps 760 mmHg 69%
    13:00 +28°C° 0.1 mm 5 mps 760 mmHg 66%
    14:00 +27°C° 0.2 mm 5 mps 759 mmHg 71%
    15:00 +26°C° 0.2 mm 5 mps 759 mmHg 76%
    16:00 +25°C° 0.2 mm 5 mps 759 mmHg 81%
    17:00 +23°C° 0.1 mm 5 mps 760 mmHg 86%
    18:00 +22°C° 0.1 mm 4 mps 760 mmHg 92%
    19:00 +21°C° 0.1 mm 4 mps 761 mmHg 97%
    20:00 +20°C° 0.1 mm 4 mps 761 mmHg 97%
    21:00 +20°C° 0.1 mm 4 mps 761 mmHg 97%
    22:00 +20°C° 0.1 mm 4 mps 761 mmHg 97%
    23:00 +20°C° 0.2 mm 4 mps 761 mmHg 97%

    8 June, Monday

    Time Temperature Precipitation Wind Pressure Humidity
    00:00 +20°C° 0.2 mm 4 mps 761 mmHg 98%
    01:00 +20°C° 0.2 mm 4 mps 761 mmHg 98%
    02:00 +20°C° 0.1 mm 4 mps 760 mmHg 98%
    03:00 +20°C° 0.1 mm 4 mps 760 mmHg 98%
    04:00 +19°C° 0.1 mm 4 mps 760 mmHg 98%
    05:00 +20°C° 0.1 mm 5 mps 760 mmHg 98%
    06:00 +20°C° 0.1 mm 5 mps 761 mmHg 98%
    07:00 +20°C° 0.1 mm 5 mps 761 mmHg 98%
    08:00 +21°C° 0.3 mm 5 mps 761 mmHg 93%
    09:00 +22°C° 0.3 mm 6 mps 762 mmHg 89%
    10:00 +24°C° 0.3 mm 6 mps 762 mmHg 85%
    11:00 +24°C° 0.2 mm 7 mps 762 mmHg 80%
    12:00 +26°C° 0.2 mm 7 mps 761 mmHg 76%
    13:00 +27°C° 0.2 mm 7 mps 761 mmHg 71%
    14:00 +26°C° 0.2 mm 7 mps 761 mmHg 75%
    15:00 +24°C° 0.2 mm 7 mps 761 mmHg 78%
    16:00 +24°C° 0.2 mm 7 mps 760 mmHg 81%
    17:00 +23°C° 0.2 mm 7 mps 761 mmHg 86%
    18:00 +22°C° 0.2 mm 6 mps 761 mmHg 91%
    19:00 +21°C° 0.2 mm 6 mps 762 mmHg 97%
    20:00 +21°C° 0.2 mm 6 mps 762 mmHg 97%
    21:00 +20°C° 0.2 mm 6 mps 762 mmHg 97%
    22:00 +20°C° 0.2 mm 6 mps 763 mmHg 97%
    23:00 +20°C° 0.2 mm 6 mps 763 mmHg 97%

    9 June, Tuesday

    Time Temperature Precipitation Wind Pressure Humidity
    00:00 +20°C° 0.2 mm 6 mps 762 mmHg 97%
    01:00 +20°C° 0.2 mm 6 mps 762 mmHg 97%
    02:00 +20°C° 0.2 mm 6 mps 762 mmHg 97%
    03:00 +20°C° 0.2 mm 6 mps 761 mmHg 97%
    04:00 +20°C° 0.2 mm 6 mps 761 mmHg 98%
    05:00 +21°C° 0.2 mm 6 mps 761 mmHg 98%
    06:00 +21°C° 0.2 mm 6 mps 762 mmHg 98%
    07:00 +21°C° 0.2 mm 6 mps 762 mmHg 98%
    08:00 +22°C° 0.1 mm 6 mps 762 mmHg 93%
    09:00 +23°C° 0.1 mm 6 mps 763 mmHg 88%
    10:00 +24°C° 0.1 mm 6 mps 763 mmHg 83%
    11:00 +26°C° 0.2 mm 6 mps 762 mmHg 80%
    12:00 +26°C° 0.2 mm 7 mps 762 mmHg 78%
    13:00 +27°C° 0.2 mm 7 mps 761 mmHg 75%
    14:00 +26°C° 0.2 mm 6 mps 761 mmHg 75%
    15:00 +26°C° 0.2 mm 6 mps 761 mmHg 76%
    16:00 +26°C° 0.2 mm 6 mps 761 mmHg 76%
    17:00 +24°C° 0.2 mm 6 mps 762 mmHg 82%
    18:00 +22°C° 0.2 mm 5 mps 762 mmHg 89%
    19:00 +21°C° 0.2 mm 5 mps 763 mmHg 95%
    20:00 +21°C° 0.4 mm 5 mps 763 mmHg 96%
    21:00 +21°C° 0.4 mm 5 mps 763 mmHg 97%
    22:00 +22°C° 0.4 mm 5 mps 763 mmHg 97%
    23:00 +22°C° 0.4 mm 5 mps 763 mmHg 97%

    10 June, Wednesday

    Time Temperature Precipitation Wind Pressure Humidity
    00:00 +22°C° 0.4 mm 5 mps 763 mmHg 97%
    01:00 +22°C° 0.4 mm 6 mps 762 mmHg 96%
    02:00 +21°C° 0.2 mm 5 mps 762 mmHg 97%
    03:00 +21°C° 0.2 mm 5 mps 762 mmHg 97%
    04:00 +21°C° 0.2 mm 5 mps 761 mmHg 97%
    05:00 +21°C° 0.1 mm 5 mps 762 mmHg 97%
    06:00 +21°C° 0.1 mm 5 mps 762 mmHg 97%
    07:00 +21°C° 0.1 mm 5 mps 762 mmHg 98%
    08:00 +22°C° 0.1 mm 5 mps 763 mmHg 93%
    09:00 +23°C° 0.1 mm 5 mps 763 mmHg 88%
    10:00 +26°C° 0.1 mm 5 mps 763 mmHg 83%
    11:00 +26°C° 0.2 mm 5 mps 763 mmHg 82%
    12:00 +26°C° 0.2 mm 5 mps 762 mmHg 81%
    13:00 +26°C° 0.2 mm 5 mps 762 mmHg 80%
    14:00 +26°C° 0.4 mm 6 mps 762 mmHg 83%
    15:00 +24°C° 0.4 mm 6 mps 761 mmHg 86%
    16:00 +24°C° 0.4 mm 6 mps 761 mmHg 89%
    17:00 +23°C° 0.3 mm 6 mps 762 mmHg 91%
    18:00 +22°C° 0.3 mm 6 mps 762 mmHg 94%
    19:00 +22°C° 0.3 mm 6 mps 762 mmHg 97%
    20:00 +21°C° 0.2 mm 6 mps 763 mmHg 97%
    21:00 +21°C° 0.2 mm 6 mps 763 mmHg 97%
    22:00 +21°C° 0.2 mm 6 mps 763 mmHg 97%
    23:00 +20°C° 0 mm 5 mps 763 mmHg 97%
    Show more